Hourly Weather Alkino

Today, 4 March, Thursday

Time Temperature Precipitation Wind Pressure Humidity
00:00 -10°C° 0 mm 3 mps 747 mmHg 93%
01:00 -12°C° 0 mm 3 mps 747 mmHg 94%
02:00 -13°C° 0 mm 3 mps 747 mmHg 96%
03:00 -13°C° 0 mm 3 mps 747 mmHg 98%
04:00 -14°C° 0 mm 3 mps 747 mmHg 98%
05:00 -14°C° 0 mm 3 mps 747 mmHg 97%
06:00 -15°C° 0 mm 3 mps 747 mmHg 97%
07:00 -15°C° 0 mm 4 mps 747 mmHg 96%
08:00 -13°C° 0 mm 5 mps 747 mmHg 95%
09:00 -12°C° 0 mm 6 mps 746 mmHg 95%
10:00 -11°C° 0.1 mm 6 mps 746 mmHg 94%
11:00 -10°C° 0.1 mm 6 mps 745 mmHg 94%
12:00 -8°C° 0.1 mm 7 mps 745 mmHg 93%
13:00 -8°C° 0.1 mm 7 mps 745 mmHg 93%
14:00 -8°C° 0.1 mm 8 mps 744 mmHg 93%
15:00 -7°C° 0.1 mm 8 mps 743 mmHg 93%
16:00 -6°C° 0.6 mm 8 mps 743 mmHg 94%
17:00 -5°C° 0.6 mm 8 mps 742 mmHg 95%
18:00 -5°C° 0.6 mm 8 mps 742 mmHg 96%
19:00 -4°C° 0.5 mm 9 mps 742 mmHg 96%
20:00 -4°C° 0.5 mm 9 mps 742 mmHg 96%
21:00 -3°C° 0.5 mm 10 mps 742 mmHg 96%
22:00 -4°C° 0.4 mm 9 mps 742 mmHg 96%
23:00 -4°C° 0.4 mm 8 mps 742 mmHg 96%

Tomorrow, 5 March, Friday

Time Temperature Precipitation Wind Pressure Humidity
00:00 -4°C° 0.4 mm 8 mps 743 mmHg 96%
01:00 -3°C° 0.5 mm 7 mps 743 mmHg 96%
02:00 -4°C° 0.5 mm 7 mps 743 mmHg 96%
03:00 -4°C° 0.5 mm 6 mps 743 mmHg 96%
04:00 -4°C° 0.7 mm 5 mps 743 mmHg 96%
05:00 -3°C° 0.7 mm 4 mps 743 mmHg 96%
06:00 -4°C° 0.7 mm 3 mps 743 mmHg 96%
07:00 -4°C° 0.8 mm 3 mps 743 mmHg 96%
08:00 -4°C° 0.8 mm 3 mps 744 mmHg 96%
09:00 -4°C° 0.8 mm 3 mps 744 mmHg 96%
10:00 -4°C° 0.6 mm 3 mps 744 mmHg 96%
11:00 -4°C° 0.6 mm 3 mps 744 mmHg 96%
12:00 -4°C° 0.6 mm 3 mps 744 mmHg 96%
13:00 -4°C° 0.1 mm 3 mps 745 mmHg 94%
14:00 -4°C° 0.1 mm 3 mps 745 mmHg 92%
15:00 -4°C° 0.1 mm 4 mps 746 mmHg 90%
16:00 -6°C° 0 mm 3 mps 747 mmHg 90%
17:00 -7°C° 0 mm 3 mps 747 mmHg 91%
18:00 -8°C° 0 mm 2 mps 748 mmHg 91%
19:00 -10°C° 0 mm 2 mps 749 mmHg 91%
20:00 -12°C° 0 mm 2 mps 750 mmHg 90%
21:00 -12°C° 0 mm 1 mps 750 mmHg 90%
22:00 -13°C° 0 mm 1 mps 751 mmHg 89%
23:00 -14°C° 0 mm 1 mps 751 mmHg 88%

Day after tomorrow, 6 March, Saturday

Time Temperature Precipitation Wind Pressure Humidity
00:00 -15°C° 0 mm 1 mps 751 mmHg 88%
01:00 -15°C° 0 mm 1 mps 752 mmHg 88%
02:00 -15°C° 0 mm 1 mps 752 mmHg 88%
03:00 -16°C° 0 mm 1 mps 752 mmHg 89%
04:00 -16°C° 0 mm 1 mps 753 mmHg 90%
05:00 -16°C° 0 mm 1 mps 753 mmHg 91%
06:00 -16°C° 0 mm 1 mps 753 mmHg 93%
07:00 -14°C° 0 mm 1 mps 753 mmHg 92%
08:00 -15°C° 0 mm 2 mps 753 mmHg 92%
09:00 -13°C° 0 mm 2 mps 753 mmHg 91%
10:00 -12°C° 0 mm 2 mps 753 mmHg 92%
11:00 -12°C° 0 mm 3 mps 753 mmHg 93%
12:00 -9°C° 0 mm 3 mps 753 mmHg 94%
13:00 -9°C° 0 mm 3 mps 753 mmHg 93%
14:00 -9°C° 0 mm 3 mps 753 mmHg 92%
15:00 -8°C° 0 mm 3 mps 753 mmHg 92%
16:00 -9°C° 0 mm 2 mps 752 mmHg 92%
17:00 -10°C° 0 mm 2 mps 752 mmHg 93%
18:00 -12°C° 0 mm 2 mps 752 mmHg 94%
19:00 -13°C° 0 mm 2 mps 752 mmHg 94%
20:00 -14°C° 0 mm 2 mps 752 mmHg 94%
21:00 -17°C° 0 mm 3 mps 752 mmHg 94%
22:00 -18°C° 0 mm 3 mps 752 mmHg 93%
23:00 -18°C° 0 mm 2 mps 752 mmHg 93%

7 March, Sunday

Time Temperature Precipitation Wind Pressure Humidity
00:00 -19°C° 0 mm 2 mps 752 mmHg 93%
01:00 -20°C° 0 mm 2 mps 752 mmHg 94%
02:00 -21°C° 0 mm 2 mps 752 mmHg 96%
03:00 -23°C° 0 mm 2 mps 752 mmHg 97%
04:00 -23°C° 0 mm 2 mps 752 mmHg 97%
05:00 -24°C° 0 mm 2 mps 752 mmHg 98%
06:00 -24°C° 0 mm 2 mps 752 mmHg 98%
07:00 -23°C° 0 mm 2 mps 753 mmHg 96%
08:00 -18°C° 0 mm 1 mps 753 mmHg 94%
09:00 -17°C° 0 mm 1 mps 753 mmHg 92%
10:00 -17°C° 0 mm 2 mps 753 mmHg 90%
11:00 -16°C° 0 mm 2 mps 753 mmHg 89%
12:00 -14°C° 0 mm 2 mps 753 mmHg 87%
13:00 -14°C° 0 mm 2 mps 753 mmHg 89%
14:00 -15°C° 0 mm 3 mps 753 mmHg 90%
15:00 -15°C° 0 mm 3 mps 752 mmHg 92%
16:00 -16°C° 0 mm 3 mps 752 mmHg 93%
17:00 -16°C° 0 mm 3 mps 752 mmHg 94%
18:00 -17°C° 0 mm 3 mps 752 mmHg 95%
19:00 -17°C° 0 mm 3 mps 751 mmHg 95%
20:00 -17°C° 0 mm 3 mps 751 mmHg 95%
21:00 -18°C° 0 mm 4 mps 751 mmHg 96%
22:00 -17°C° 0.1 mm 4 mps 750 mmHg 95%
23:00 -17°C° 0.1 mm 5 mps 749 mmHg 95%

8 March, Monday

Time Temperature Precipitation Wind Pressure Humidity
00:00 -16°C° 0.1 mm 6 mps 748 mmHg 94%
01:00 -15°C° 0.2 mm 6 mps 747 mmHg 94%
02:00 -14°C° 0.2 mm 7 mps 747 mmHg 94%
03:00 -13°C° 0.2 mm 8 mps 746 mmHg 93%
04:00 -12°C° 0.4 mm 8 mps 745 mmHg 93%
05:00 -11°C° 0.4 mm 8 mps 745 mmHg 93%
06:00 -11°C° 0.4 mm 8 mps 744 mmHg 93%
07:00 -11°C° 0.4 mm 8 mps 745 mmHg 90%
08:00 -9°C° 0.4 mm 7 mps 745 mmHg 86%
09:00 -9°C° 0.4 mm 7 mps 745 mmHg 83%
10:00 -9°C° 0 mm 6 mps 746 mmHg 81%
11:00 -8°C° 0 mm 5 mps 747 mmHg 78%
12:00 -8°C° 0 mm 4 mps 747 mmHg 76%
13:00 -8°C° 0 mm 4 mps 747 mmHg 79%
14:00 -8°C° 0 mm 4 mps 747 mmHg 82%
15:00 -8°C° 0 mm 4 mps 746 mmHg 85%
16:00 -7°C° 0.6 mm 5 mps 745 mmHg 88%
17:00 -6°C° 0.6 mm 6 mps 744 mmHg 92%
18:00 -7°C° 0.6 mm 7 mps 743 mmHg 95%
19:00 -6°C° 0.5 mm 8 mps 743 mmHg 95%
20:00 -6°C° 0.5 mm 9 mps 743 mmHg 94%
21:00 -7°C° 0.5 mm 10 mps 742 mmHg 94%
22:00 -9°C° 0.1 mm 10 mps 743 mmHg 90%
23:00 -12°C° 0.1 mm 9 mps 743 mmHg 86%

9 March, Tuesday

Time Temperature Precipitation Wind Pressure Humidity
00:00 -16°C° 0.1 mm 9 mps 744 mmHg 81%
01:00 -16°C° 0 mm 9 mps 745 mmHg 84%
02:00 -16°C° 0 mm 9 mps 746 mmHg 87%
03:00 -16°C° 0 mm 9 mps 747 mmHg 89%
04:00 -16°C° 0 mm 8 mps 748 mmHg 90%
05:00 -15°C° 0 mm 7 mps 749 mmHg 91%
06:00 -14°C° 0 mm 6 mps 750 mmHg 92%
07:00 -15°C° 0 mm 6 mps 751 mmHg 92%
08:00 -14°C° 0 mm 5 mps 752 mmHg 93%
09:00 -14°C° 0 mm 5 mps 753 mmHg 93%
10:00 -14°C° 0 mm 5 mps 753 mmHg 93%
11:00 -12°C° 0 mm 4 mps 754 mmHg 92%
12:00 -12°C° 0 mm 4 mps 754 mmHg 92%
13:00 -10°C° 0 mm 3 mps 755 mmHg 92%
14:00 -10°C° 0 mm 3 mps 755 mmHg 92%
15:00 -10°C° 0 mm 3 mps 755 mmHg 92%
16:00 -12°C° 0 mm 2 mps 755 mmHg 94%
17:00 -13°C° 0 mm 2 mps 755 mmHg 95%
18:00 -13°C° 0 mm 1 mps 756 mmHg 97%
19:00 -14°C° 0 mm 1 mps 756 mmHg 97%
20:00 -14°C° 0 mm 0 mps 756 mmHg 98%
21:00 -15°C° 0 mm 0 mps 757 mmHg 98%
22:00 -15°C° 0 mm 1 mps 756 mmHg 97%
23:00 -14°C° 0 mm 1 mps 756 mmHg 97%
Show more